Weather History for Hamilton, OH

Change the Weather History Date:

Friday, January 18, 2013

  Actual Average (KCVG) Record (KCVG)
Temperature  
Mean Temperature 28 °F 31 °F  
Max Temperature 41 °F 39 °F 70 °F (1929)
Min Temperature 15 °F 23 °F -25 °F (1977)
Degree Days  
Heating Degree Days 37 34  
Month to date heating degree days 612  
Since 1 July heating degree days 2531  
Cooling Degree Days 0 0  
Month to date cooling degree days 0  
Year to date cooling degree days 0  
Moisture  
Dew Point 17 °F    
Average Humidity 61    
Maximum Humidity 88    
Minimum Humidity 35    
Precipitation  
Precipitation 0.00 in 0.09 in 2.97 in (1876)
Month to date precipitation 1.76  
Year to date precipitation 1.76  
Snow  
Snow 0.00 in 0.20 in 1.70 in (1915)
Month to date snowfall 3.5  
Since 1 July snowfall 9.1  
Snow Depth -    
Sea Level Pressure  
Sea Level Pressure 30.45 in    
Wind  
Wind Speed 4 mph (SSW)    
Max Wind Speed 12 mph    
Max Gust Speed 20 mph    
Visibility 10 miles    
Events      
T = Trace of Precipitation, MM = Missing Value Source: NWS Daily Summary

Daily Weather History Graph

Daily Weather History Graph

Search for Another Location

Airport:

Trip Planner

Search our weather history database for the weather conditions in past years. The results will help you decide how hot, cold, wet, or windy it might be!

Date:

Astronomy

Jan. 18, 2013 Rise Set
Actual Time 7:54 AM EST 5:42 PM EST
Civil Twilight 7:25 AM EST 6:11 PM EST
Nautical Twilight 6:52 AM EST 6:44 PM EST
Astronomical Twilight 6:20 AM EST 7:16 PM EST
Moon 11:35 AM EST (1/18) 12:29 AM EST (1/18)
Length of Visible Light 10h 46m
Length of Day
9h 47m
Waxing Crescent, 47% of the Moon is Illuminated
Jan 18
Waxing Crescent
Jan 18
First Quarter
Jan 26
Full
Feb 3
Last Quarter
Feb 10
New

Hourly Weather History & Observations

Time (EST) Temp. Windchill Dew Point Humidity Pressure Visibility Wind Dir Wind Speed Gust Speed Precip Events Conditions
12:53 AM 25.0 °F 17.1 °F 16.0 °F 69% 30.47 in 10.0 mi NW 6.9 mph - N/A   Clear
1:53 AM 23.0 °F 17.0 °F 16.0 °F 74% 30.49 in 10.0 mi NNW 4.6 mph - N/A   Clear
2:53 AM 19.0 °F - 14.0 °F 81% 30.50 in 10.0 mi Calm Calm - N/A   Clear
3:53 AM 17.1 °F - 12.9 °F 84% 30.51 in 10.0 mi Calm Calm - N/A   Clear
4:53 AM 16.0 °F - 12.9 °F 88% 30.52 in 10.0 mi Calm Calm - N/A   Clear
5:53 AM 15.1 °F - 12.0 °F 88% 30.52 in 10.0 mi Calm Calm - N/A   Clear
6:53 AM 15.1 °F - 12.0 °F 88% 30.54 in 10.0 mi Calm Calm - N/A   Clear
7:53 AM 16.0 °F - 12.0 °F 84% 30.55 in 10.0 mi Calm Calm - N/A   Clear
8:53 AM 21.0 °F 16.2 °F 18.0 °F 88% 30.54 in 10.0 mi ESE 3.5 mph - N/A   Clear
9:53 AM 28.0 °F 24.2 °F 19.0 °F 69% 30.56 in 10.0 mi South 3.5 mph - N/A   Clear
10:53 AM 32.0 °F 27.5 °F 14.0 °F 48% 30.56 in 10.0 mi South 4.6 mph - N/A   Clear
11:53 AM 34.0 °F 31.0 °F 14.0 °F 44% 30.54 in 10.0 mi Variable 3.5 mph - N/A   Clear
12:53 PM 37.9 °F 33.5 °F 14.0 °F 38% 30.48 in 10.0 mi Variable 5.8 mph - N/A   Clear
1:53 PM 39.0 °F 33.4 °F 16.0 °F 39% 30.45 in 10.0 mi South 8.1 mph 16.1 mph N/A   Clear
2:53 PM 41.0 °F 35.2 °F 15.1 °F 35% 30.44 in 10.0 mi SSW 9.2 mph - N/A   Clear
3:53 PM 41.0 °F 35.2 °F 16.0 °F 36% 30.41 in 10.0 mi SSW 9.2 mph 17.3 mph N/A   Clear
4:53 PM 39.9 °F 32.9 °F 16.0 °F 38% 30.39 in 10.0 mi South 11.5 mph 19.6 mph N/A   Clear
5:53 PM 39.0 °F 33.4 °F 18.0 °F 43% 30.37 in 10.0 mi SSW 8.1 mph - N/A   Clear
6:53 PM 37.0 °F 32.4 °F 19.9 °F 50% 30.37 in 10.0 mi Variable 5.8 mph - N/A   Clear
7:53 PM 36.0 °F 33.3 °F 21.0 °F 55% 30.36 in 10.0 mi Variable 3.5 mph - N/A   Clear
8:53 PM 37.0 °F 31.6 °F 21.9 °F 54% 30.33 in 10.0 mi South 6.9 mph - N/A   Clear
9:53 PM 37.0 °F 31.0 °F 21.9 °F 54% 30.30 in 10.0 mi South 8.1 mph - N/A   Clear
10:53 PM 37.0 °F 31.0 °F 23.0 °F 57% 30.28 in 10.0 mi SSW 8.1 mph - N/A   Clear
11:53 PM 37.0 °F 31.0 °F 23.0 °F 57% 30.26 in 10.0 mi SSW 8.1 mph - N/A   Clear